Hourly Data Report for February 11, 2022

RANKIN INLET A
NUNAVUT
Current Station Operator: NAVCAN

62°48'38.000" N
92°06'53.000" W
32.30 m
2303405
71083
YRT

Download Data

Hourly Data (February 2022)
Hourly Data Report for February 11, 2022
TIME
LST
Temp Definition
°C
Dew Point Definition
°C
Rel Hum Definition
%
Precip. Amount Definition
mm

Wind Dir Definition
10's deg

Wind Spd Definition
km/h
Visibility Definition
km
Stn Press Definition
kPa
Hmdx Definition


Wind Chill Definition


Weather Definition


00:00 -36.9 -41.4 64   34 60 0.4 101.08   -60 Ice Crystals,Blowing Snow
01:00 -36.8 -41.3 64   34 57 0.2 101.16   -59 Ice Crystals,Blowing Snow
02:00 -36.7 -41.1 64   34 57 0.2 101.21   -59 Ice Crystals,Blowing Snow
03:00 -36.4 -40.9 65   34 55 0.4 101.32   -58 Ice Crystals,Blowing Snow
04:00 -36.1 -40.6 65   35 45 0.8 101.44   -57 Ice Crystals,Blowing Snow
05:00 -36.5 -41.0 65   35 55 0.4 101.39   -59 Ice Crystals,Blowing Snow
06:00 -36.6 -41.1 64   34 55 0.2 101.42   -59 Ice Crystals,Blowing Snow
07:00 -36.6 -41.1 64   34 61 0.4 101.41   -60 Ice Crystals,Blowing Snow
08:00 -36.6 -41.1 64   34 53 0.4 101.48   -58 Ice Crystals,Blowing Snow
09:00 -36.5 -41.0 64   36 43 0.2 101.52   -57 Ice Crystals,Blowing Snow
10:00 -36.2 -40.7 64   34 53 0.4 101.48   -58 Ice Crystals,Blowing Snow
11:00 -35.6 -40.1 64   34 53 0.6 101.47   -57 Ice Crystals,Blowing Snow
12:00 -35.2 -39.8 64   34 48 0.6 101.44   -56 Ice Crystals,Blowing Snow
13:00 -34.9 -39.5 64   33 48 0.8 101.46   -55 Ice Crystals,Blowing Snow
14:00 -34.7 -39.2 64   33 37 0.4 101.45   -53 Ice Crystals,Blowing Snow
15:00 -34.6 -39.1 65   33 41 0.6 101.42   -54 Ice Crystals,Blowing Snow
16:00 -34.3 -38.8 65   33 48 1.2 101.36   -55 Ice Crystals,Blowing Snow
17:00 -34.2 -38.6 65   33 34 1.2 101.40   -52 Ice Crystals,Blowing Snow
18:00 -34.2 -38.6 65   33 30 0.8 101.36   -51 Ice Crystals,Blowing Snow
19:00 -34.5 -38.9 65   31 32 1.6 101.32   -52 Ice Crystals,Blowing Snow
20:00 -34.5 -39.0 65   31 20 2.4 101.29   -49 Ice Crystals,Blowing Snow
21:00 -34.4 -38.8 65   32 31 2.4 101.23   -52 Ice Crystals,Blowing Snow
22:00 -34.4 -38.8 66   32 35 1.2 101.17   -52 Ice Crystals,Blowing Snow
23:00 -34.6 -39.0 65   32 23 1.6 101.16   -50 Ice Crystals,Blowing Snow

Notes on Data Quality.

Legend

  • E = Estimated
  • M = Missing
  • NA = Not Available*
  • [empty] = Indicates an unobserved value
Date modified: